{"data":{"norad_id":68240,"epoch":"2026-09-20T00:02:18.269376Z","epoch_age_seconds":94432,"freshness":"FRESH","line1":"1 68240U 26054J   26263.00160034  .00017607  00000+0  53085-3 0  9994","line2":"2 68240  53.1575 104.2551 0001476  81.1942 278.9228 15.34409623 28880","mean_motion":15.34409623,"eccentricity":0.0001476,"inclination_deg":53.1575,"raan_deg":104.2551,"arg_perigee_deg":81.1942,"mean_anomaly_deg":278.9228,"bstar":0.00053085,"rev_number":2888,"period_min":93.847169518175,"perigee_km":461.66493497474,"apogee_km":463.68434257051,"semimajor_km":6840.8116387726,"source":"CELESTRAK","updated_at":"2026-09-20T09:00:43.840726Z"}}